FENGYUN 3H

Last updated on Tue Sep 22 2026 00:02:54 GMT+0000 (Coordinated Universal Time)

1 65815U 25219A 26264.29744524 .00000026 00000+0 32532-4 0 9997 2 65815 98.6824 203.2170 0001444 97.4011 262.7330 14.19933611 51023
UTC large
Height (km)
Speed (km/s)
/
Latitude / Longitude
Inclination (degrees)
Orbital Period (minutes)
Azimuth
Elevation
Range (km)
Doppler Factor

Next 0 passes for location: London (51.5072 / 0.1276)

No passes found over London.
FENGYUN 3H